Escanaba, MI

12:48 PM EDT on August 18, 2017 (GMT -0400)
Delta County

Weather History for KESC - May, 2012

Change the Weather History Date:

Monday, May 21, 2012

  Actual Average Record
Temperature  
Mean Temperature 55 °F -  
Max Temperature 66 °F 62 °F 77 °F (1989)
Min Temperature 44 °F 44 °F 28 °F (2002)
Degree Days  
Heating Degree Days 10    
Growing Degree Days 5 (Base 50)    
Moisture  
Dew Point 36 °F    
Average Humidity 49    
Maximum Humidity 72    
Minimum Humidity 27    
Precipitation  
Precipitation 0.11 in - - ()
Sea Level Pressure  
Sea Level Pressure 30.10 in    
Wind  
Wind Speed 12 mph (NNW)    
Max Wind Speed 20 mph    
Max Gust Speed 29 mph    
Visibility 10 miles    
Events      
Averages and records for this station are not official NWS values.
T = Trace of Precipitation, MM = Missing Value Source: NWS Daily Summary

Daily Weather History Graph

Daily Weather History Graph

Search for Another Location

Airport or City:

Trip Planner

Search our weather history database for the weather conditions in past years. The results will help you decide how hot, cold, wet, or windy it might be!

Date:

Astronomy

May. 21, 2012 Rise Set
Actual Time 6:10 AM EDT 9:20 PM EDT
Civil Twilight 5:34 AM EDT 9:56 PM EDT
Nautical Twilight 4:48 AM EDT 10:42 PM EDT
Astronomical Twilight 3:51 AM EDT 11:39 PM EDT
Moon 6:32 AM EDT (5/21) 10:11 PM EDT (5/21)
Length of Visible Light 16h 21m
Length of Day
15h 10m
New Moon, 0% of the Moon is Illuminated
May 21
New Moon
May 28
First Quarter
Jun 4
Full
Jun 11
Last Quarter
Jun 19
New

Hourly Weather History & Observations

Time (EDT) Temp. Windchill Dew Point Humidity Pressure Visibility Wind Dir Wind Speed Gust Speed Precip Events Conditions
12:15 AM 55.4 °F - 46.4 °F 72% 29.94 in 10.0 mi NW 19.6 mph 28.8 mph N/A   Overcast
12:35 AM 53.6 °F - 42.8 °F 67% 29.96 in 10.0 mi NW 15.0 mph 25.3 mph N/A   Overcast
12:55 AM 51.8 °F - 42.8 °F 71% 29.98 in 10.0 mi NW 11.5 mph 20.7 mph N/A   Overcast
1:15 AM 51.8 °F - 42.8 °F 71% 29.99 in 10.0 mi NW 12.7 mph 18.4 mph N/A   Overcast
1:35 AM 51.8 °F - 42.8 °F 71% 30.01 in 10.0 mi NW 8.1 mph - N/A   Overcast
1:55 AM 51.8 °F - 41.0 °F 67% 30.01 in 10.0 mi NW 13.8 mph 19.6 mph N/A   Overcast
2:15 AM 51.8 °F - 41.0 °F 67% 30.03 in 10.0 mi NNW 15.0 mph 21.9 mph N/A   Overcast
2:35 AM 50.0 °F - 39.2 °F 66% 30.03 in 10.0 mi NNW 13.8 mph 23.0 mph N/A   Overcast
2:55 AM 48.2 °F - 37.4 °F 66% 30.04 in 10.0 mi NNW 13.8 mph 23.0 mph N/A   Overcast
3:15 AM 48.2 °F - 37.4 °F 66% 30.05 in 10.0 mi NNW 8.1 mph 17.3 mph N/A   Overcast
3:35 AM 48.2 °F - 37.4 °F 66% 30.04 in 10.0 mi NNW 12.7 mph 19.6 mph N/A   Overcast
3:55 AM 48.2 °F - 37.4 °F 66% 30.04 in 10.0 mi NNW 8.1 mph 18.4 mph N/A   Overcast
4:15 AM 48.2 °F - 37.4 °F 66% 30.05 in 10.0 mi NW 6.9 mph - N/A   Overcast
4:35 AM 48.2 °F - 37.4 °F 66% 30.05 in 10.0 mi NNW 6.9 mph - N/A   Overcast
4:55 AM 48.2 °F - 37.4 °F 66% 30.06 in 10.0 mi NW 9.2 mph - N/A   Overcast
5:15 AM 48.2 °F - 37.4 °F 66% 30.07 in 10.0 mi NNW 9.2 mph - N/A   Overcast
5:35 AM 48.2 °F - 37.4 °F 66% 30.08 in 10.0 mi NNW 12.7 mph 17.3 mph N/A   Overcast
5:55 AM 48.2 °F - 37.4 °F 66% 30.09 in 10.0 mi NNW 8.1 mph - N/A   Overcast
6:15 AM 48.2 °F - 37.4 °F 66% 30.09 in 10.0 mi NW 9.2 mph - N/A   Overcast
6:35 AM 48.2 °F - 37.4 °F 66% 30.09 in 10.0 mi NW 9.2 mph - N/A   Overcast
6:55 AM 48.2 °F - 37.4 °F 66% 30.09 in 10.0 mi NW 9.2 mph - N/A   Overcast
7:15 AM 48.2 °F - 37.4 °F 66% 30.09 in 10.0 mi NW 6.9 mph - N/A   Overcast
7:35 AM 48.2 °F - 37.4 °F 66% 30.10 in 10.0 mi NW 9.2 mph - N/A   Overcast
7:55 AM 50.0 °F - 37.4 °F 62% 30.10 in 10.0 mi NW 8.1 mph - N/A   Overcast
8:15 AM 50.0 °F - 37.4 °F 62% 30.10 in 10.0 mi NNW 9.2 mph 16.1 mph N/A   Scattered Clouds
8:35 AM 51.8 °F - 37.4 °F 58% 30.10 in 10.0 mi NNW 11.5 mph 16.1 mph N/A   Clear
8:55 AM 53.6 °F - 37.4 °F 54% 30.10 in 10.0 mi NNW 10.4 mph 17.3 mph N/A   Clear
9:15 AM 55.4 °F - 37.4 °F 51% 30.11 in 10.0 mi North 12.7 mph 19.6 mph N/A   Clear
9:35 AM 55.4 °F - 37.4 °F 51% 30.12 in 10.0 mi NNW 13.8 mph 18.4 mph N/A   Clear
9:55 AM 57.2 °F - 37.4 °F 48% 30.12 in 10.0 mi North 10.4 mph 23.0 mph N/A   Clear
10:15 AM 57.2 °F - 37.4 °F 48% 30.13 in 10.0 mi North 13.8 mph 21.9 mph N/A   Clear
10:35 AM 59.0 °F - 37.4 °F 45% 30.13 in 10.0 mi North 11.5 mph 19.6 mph N/A   Clear
10:55 AM 60.8 °F - 37.4 °F 42% 30.13 in 10.0 mi North 13.8 mph 21.9 mph N/A   Clear
11:15 AM 60.8 °F - 39.2 °F 45% 30.13 in 10.0 mi NNW 11.5 mph 21.9 mph N/A   Clear
11:55 AM 62.6 °F - 39.2 °F 42% 30.14 in 10.0 mi North 13.8 mph 20.7 mph N/A   Clear
12:15 PM 62.6 °F - 37.4 °F 39% 30.14 in 10.0 mi North 15.0 mph 19.6 mph N/A   Clear
12:35 PM 62.6 °F - 39.2 °F 42% 30.14 in 10.0 mi North 11.5 mph 19.6 mph N/A   Clear
12:55 PM 64.4 °F - 37.4 °F 37% 30.14 in 10.0 mi NNW 13.8 mph 21.9 mph N/A   Partly Cloudy
1:15 PM 64.4 °F - 35.6 °F 34% 30.14 in 10.0 mi North 12.7 mph 21.9 mph N/A   Partly Cloudy
1:35 PM 64.4 °F - 35.6 °F 34% 30.14 in 10.0 mi North 17.3 mph 23.0 mph N/A   Partly Cloudy
1:55 PM 64.4 °F - 35.6 °F 34% 30.14 in 10.0 mi North 13.8 mph 21.9 mph N/A   Scattered Clouds
2:15 PM 66.2 °F - 37.4 °F 35% 30.14 in 10.0 mi NNW 10.4 mph 23.0 mph N/A   Partly Cloudy
2:35 PM 66.2 °F - 35.6 °F 32% 30.13 in 10.0 mi North 11.5 mph 23.0 mph N/A   Clear
2:55 PM 66.2 °F - 35.6 °F 32% 30.13 in 10.0 mi NNE 10.4 mph 20.7 mph N/A   Clear
3:15 PM 66.2 °F - 35.6 °F 32% 30.13 in 10.0 mi North 10.4 mph 21.9 mph N/A   Clear
3:35 PM 66.2 °F - 35.6 °F 32% 30.14 in 10.0 mi North 17.3 mph 23.0 mph N/A   Clear
3:55 PM 66.2 °F - 35.6 °F 32% 30.13 in 10.0 mi NNW 12.7 mph 19.6 mph N/A   Partly Cloudy
4:15 PM 66.2 °F - 35.6 °F 32% 30.13 in 10.0 mi NNE 11.5 mph 19.6 mph N/A   Clear
4:35 PM 66.2 °F - 35.6 °F 32% 30.12 in 10.0 mi NNE 8.1 mph 20.7 mph N/A   Clear
4:55 PM 66.2 °F - 35.6 °F 32% 30.12 in 10.0 mi NNE 6.9 mph 17.3 mph N/A   Clear
5:15 PM 66.2 °F - 35.6 °F 32% 30.12 in 10.0 mi North 13.8 mph 23.0 mph N/A   Clear
5:35 PM 66.2 °F - 35.6 °F 32% 30.12 in 10.0 mi North 10.4 mph 20.7 mph N/A   Clear
5:55 PM 66.2 °F - 33.8 °F 30% 30.12 in 10.0 mi NE 11.5 mph 18.4 mph N/A   Clear
6:15 PM 64.4 °F - 33.8 °F 32% 30.13 in 10.0 mi North 12.7 mph 17.3 mph N/A   Clear
6:35 PM 64.4 °F - 33.8 °F 32% 30.13 in 10.0 mi North 12.7 mph 16.1 mph N/A   Clear
7:15 PM 64.4 °F - 30.2 °F 28% 30.12 in 10.0 mi NNE 11.5 mph 17.3 mph N/A   Clear
7:35 PM 62.6 °F - 32.0 °F 32% 30.12 in 10.0 mi North 13.8 mph 18.4 mph N/A   Clear
7:55 PM 62.6 °F - 28.4 °F 27% 30.13 in 10.0 mi NNE 12.7 mph 17.3 mph N/A   Clear
8:15 PM 60.8 °F - 26.6 °F 27% 30.13 in 10.0 mi North 10.4 mph 19.6 mph N/A   Clear
8:35 PM 60.8 °F - 26.6 °F 27% 30.14 in 10.0 mi North 9.2 mph - N/A   Clear
8:55 PM 57.2 °F - 28.4 °F 33% 30.14 in 10.0 mi North 6.9 mph - N/A   Clear
9:15 PM 57.2 °F - 28.4 °F 33% 30.14 in 10.0 mi North 4.6 mph - N/A   Clear
9:35 PM 55.4 °F - 28.4 °F 36% 30.14 in 10.0 mi North 3.5 mph - N/A   Clear
9:55 PM 53.6 °F - 28.4 °F 38% 30.15 in 10.0 mi North 3.5 mph - N/A   Clear
10:15 PM 50.0 °F - 30.2 °F 47% 30.15 in 10.0 mi Calm Calm - N/A   Clear
10:35 PM 48.2 °F - 28.4 °F 46% 30.15 in 10.0 mi North 3.5 mph - N/A   Clear
10:55 PM 46.4 °F - 30.2 °F 53% 30.15 in 10.0 mi Calm Calm - N/A   Clear
11:15 PM 44.6 °F 42.2 °F 30.2 °F 57% 30.15 in 10.0 mi WNW 4.6 mph - N/A   Clear
11:35 PM 44.6 °F 42.2 °F 30.2 °F 57% 30.14 in 10.0 mi NW 4.6 mph - N/A   Clear
11:55 PM 44.6 °F 42.2 °F 30.2 °F 57% 30.14 in 10.0 mi NW 4.6 mph - N/A   Clear